Time,TemperatureF,DewpointF,PressureIn,WindDirection,WindDirectionDegrees,WindSpeedMPH,WindSpeedGustMPH,Humidity,HourlyPrecipIn,Conditions,Clouds,dailyrainin,SoftwareType,DateUTC
2013-06-08 00:02:00,59.0,52.0,29.94,South,169,0.0,0.0,78,0.00,,,0.01,,2013-06-08 05:02:00,
2013-06-08 00:12:00,59.0,52.0,29.94,South,169,0.0,0.0,78,0.00,,,0.01,,2013-06-08 05:12:00,
2013-06-08 00:22:00,59.0,52.0,29.94,South,169,0.0,0.0,78,0.00,,,0.01,,2013-06-08 05:22:00,
2013-06-08 00:32:00,58.0,52.0,29.94,South,169,0.0,0.0,81,0.00,,,0.01,,2013-06-08 05:32:00,
2013-06-08 00:42:00,58.0,52.0,29.94,South,169,0.0,0.0,81,0.00,,,0.01,,2013-06-08 05:42:00,
2013-06-08 00:52:00,57.0,52.0,29.95,South,169,0.0,0.0,82,0.00,,,0.01,,2013-06-08 05:52:00,
2013-06-08 01:02:00,57.0,51.0,29.94,South,169,0.0,0.0,79,0.00,,,0.01,,2013-06-08 06:02:00,
2013-06-08 01:12:00,57.0,51.0,29.94,South,169,0.0,0.0,79,0.00,,,0.01,,2013-06-08 06:12:00,
2013-06-08 01:22:00,57.0,51.0,29.94,South,169,0.0,0.0,81,0.00,,,0.01,,2013-06-08 06:22:00,
2013-06-08 01:32:00,55.0,51.0,29.94,South,169,0.0,0.0,86,0.00,,,0.01,,2013-06-08 06:32:00,
2013-06-08 01:42:00,55.0,51.0,29.94,South,169,0.0,0.0,86,0.00,,,0.01,,2013-06-08 06:42:00,
2013-06-08 01:52:00,55.0,51.0,29.94,South,169,0.0,0.0,86,0.00,,,0.01,,2013-06-08 06:52:00,
2013-06-08 02:02:00,54.0,50.0,29.93,South,169,0.0,0.0,86,0.00,,,0.01,,2013-06-08 07:02:00,
2013-06-08 02:12:00,54.0,50.0,29.93,South,169,0.0,0.0,86,0.00,,,0.01,,2013-06-08 07:12:00,
2013-06-08 02:22:00,54.0,50.0,29.93,South,169,0.0,0.0,86,0.00,,,0.01,,2013-06-08 07:22:00,
2013-06-08 02:32:00,55.0,49.0,29.93,South,169,0.0,0.0,80,0.00,,,0.01,,2013-06-08 07:32:00,
2013-06-08 02:42:00,55.0,49.0,29.93,South,169,0.0,0.0,80,0.00,,,0.01,,2013-06-08 07:42:00,
2013-06-08 02:52:00,55.0,49.0,29.94,South,169,0.0,0.0,79,0.00,,,0.01,,2013-06-08 07:52:00,
2013-06-08 03:02:00,55.0,48.0,29.94,South,169,0.0,0.0,76,0.00,,,0.01,,2013-06-08 08:02:00,
2013-06-08 03:12:00,55.0,48.0,29.94,South,169,0.0,0.0,76,0.00,,,0.01,,2013-06-08 08:12:00,
2013-06-08 03:22:00,55.0,47.0,29.94,South,169,0.0,0.0,75,0.00,,,0.01,,2013-06-08 08:22:00,
2013-06-08 03:32:00,54.0,47.0,29.93,South,169,0.0,0.0,77,0.00,,,0.01,,2013-06-08 08:32:00,
2013-06-08 03:42:00,54.0,47.0,29.93,South,169,0.0,0.0,77,0.00,,,0.01,,2013-06-08 08:42:00,
2013-06-08 03:52:00,54.0,46.0,29.93,South,169,0.0,0.0,75,0.00,,,0.01,,2013-06-08 08:52:00,
2013-06-08 04:02:00,55.0,44.0,29.93,South,169,0.0,0.0,67,0.00,,,0.01,,2013-06-08 09:02:00,
2013-06-08 04:12:00,55.0,44.0,29.93,South,169,0.0,0.0,67,0.00,,,0.01,,2013-06-08 09:12:00,
2013-06-08 04:22:00,56.0,43.0,29.93,South,169,0.0,0.0,62,0.00,,,0.01,,2013-06-08 09:22:00,
2013-06-08 04:33:00,57.0,45.0,29.93,South,169,0.0,0.0,63,0.00,,,0.01,,2013-06-08 09:33:00,
2013-06-08 04:43:00,57.0,45.0,29.93,South,169,0.0,0.0,63,0.00,,,0.01,,2013-06-08 09:43:00,
2013-06-08 04:53:00,56.0,45.0,29.93,South,169,0.0,0.0,66,0.00,,,0.01,,2013-06-08 09:53:00,
2013-06-08 05:03:00,54.0,45.0,29.93,South,169,0.0,0.0,72,0.00,,,0.01,,2013-06-08 10:03:00,
2013-06-08 05:12:00,54.0,45.0,29.93,South,169,0.0,0.0,72,0.00,,,0.01,,2013-06-08 10:12:00,
2013-06-08 05:22:00,54.0,46.0,29.93,South,169,0.0,0.0,75,0.00,,,0.01,,2013-06-08 10:22:00,
2013-06-08 05:33:00,55.0,45.0,29.93,South,169,0.0,0.0,68,0.00,,,0.01,,2013-06-08 10:33:00,
2013-06-08 05:42:00,55.0,45.0,29.93,South,169,0.0,0.0,68,0.00,,,0.01,,2013-06-08 10:42:00,
2013-06-08 05:52:00,55.0,45.0,29.94,South,169,0.0,0.0,70,0.00,,,0.01,,2013-06-08 10:52:00,
2013-06-08 06:02:00,54.0,46.0,29.95,South,169,0.0,0.0,74,0.00,,,0.01,,2013-06-08 11:02:00,
2013-06-08 06:12:00,54.0,46.0,29.95,South,169,0.0,0.0,74,0.00,,,0.01,,2013-06-08 11:12:00,
2013-06-08 06:22:00,54.0,46.0,29.96,South,169,0.0,0.0,75,0.00,,,0.01,,2013-06-08 11:22:00,
2013-06-08 06:32:00,54.0,46.0,29.96,South,169,0.0,0.0,75,0.00,,,0.01,,2013-06-08 11:32:00,
2013-06-08 06:42:00,54.0,46.0,29.96,South,169,0.0,0.0,75,0.00,,,0.01,,2013-06-08 11:42:00,
2013-06-08 06:52:00,55.0,47.0,29.96,South,169,0.0,0.0,74,0.00,,,0.01,,2013-06-08 11:52:00,
2013-06-08 07:02:00,58.0,48.0,29.96,South,169,0.0,0.0,69,0.00,,,0.01,,2013-06-08 12:02:00,
2013-06-08 07:12:00,58.0,48.0,29.96,South,169,0.0,0.0,69,0.00,,,0.01,,2013-06-08 12:12:00,
2013-06-08 07:22:00,59.0,47.0,29.96,South,169,0.0,0.0,64,0.00,,,0.01,,2013-06-08 12:22:00,
2013-06-08 07:32:00,61.0,47.0,29.97,South,169,0.0,0.0,61,0.00,,,0.01,,2013-06-08 12:32:00,
2013-06-08 07:42:00,61.0,47.0,29.97,South,169,0.0,0.0,61,0.00,,,0.01,,2013-06-08 12:42:00,
2013-06-08 07:52:00,61.0,47.0,29.97,South,169,0.0,0.0,60,0.00,,,0.01,,2013-06-08 12:52:00,
2013-06-08 08:02:00,61.0,45.0,29.97,South,169,0.0,0.0,56,0.00,,,0.01,,2013-06-08 13:02:00,
2013-06-08 08:12:00,61.0,45.0,29.97,South,169,0.0,0.0,56,0.00,,,0.01,,2013-06-08 13:12:00,
2013-06-08 08:22:00,61.0,46.0,29.97,South,169,0.0,0.0,57,0.00,,,0.01,,2013-06-08 13:22:00,
2013-06-08 08:32:00,63.0,46.0,29.98,South,169,0.0,0.0,53,0.00,,,0.01,,2013-06-08 13:32:00,
2013-06-08 08:42:00,63.0,46.0,29.98,South,169,0.0,0.0,53,0.00,,,0.01,,2013-06-08 13:42:00,
2013-06-08 08:52:00,64.0,47.0,29.98,South,169,0.0,0.0,53,0.00,,,0.01,,2013-06-08 13:52:00,
2013-06-08 09:02:00,66.0,47.0,29.98,South,169,0.0,0.0,50,0.00,,,0.01,,2013-06-08 14:02:00,
2013-06-08 09:12:00,66.0,47.0,29.98,South,169,0.0,0.0,50,0.00,,,0.01,,2013-06-08 14:12:00,
2013-06-08 09:22:00,68.0,48.0,29.98,South,169,0.0,0.0,48,0.00,,,0.01,,2013-06-08 14:22:00,
2013-06-08 09:32:00,68.0,48.0,29.98,South,169,0.0,0.0,49,0.00,,,0.01,,2013-06-08 14:32:00,
2013-06-08 09:42:00,68.0,48.0,29.98,South,169,0.0,0.0,49,0.00,,,0.01,,2013-06-08 14:42:00,
2013-06-08 09:52:00,69.0,49.0,29.97,South,169,0.0,0.0,49,0.00,,,0.01,,2013-06-08 14:52:00,
2013-06-08 10:02:00,70.0,48.0,29.97,South,169,0.0,0.0,45,0.00,,,0.01,,2013-06-08 15:02:00,
2013-06-08 10:12:00,70.0,48.0,29.97,South,169,0.0,0.0,45,0.00,,,0.01,,2013-06-08 15:12:00,
2013-06-08 10:22:00,70.0,48.0,29.96,South,169,0.0,0.0,45,0.00,,,0.01,,2013-06-08 15:22:00,
2013-06-08 10:32:00,72.0,49.0,29.97,South,169,0.0,0.0,45,0.00,,,0.01,,2013-06-08 15:32:00,
2013-06-08 10:42:00,72.0,49.0,29.97,South,169,0.0,0.0,45,0.00,,,0.01,,2013-06-08 15:42:00,
2013-06-08 10:53:00,71.0,49.0,29.97,South,169,0.0,0.0,45,0.00,,,0.01,,2013-06-08 15:53:00,
2013-06-08 11:03:00,72.0,49.0,29.98,South,169,0.0,0.0,45,0.00,,,0.01,,2013-06-08 16:03:00,
2013-06-08 11:12:00,72.0,49.0,29.98,South,169,0.0,0.0,45,0.00,,,0.01,,2013-06-08 16:12:00,
2013-06-08 11:23:00,73.0,49.0,29.98,South,169,0.0,0.0,43,0.00,,,0.01,,2013-06-08 16:23:00,
2013-06-08 11:33:00,74.0,50.0,29.98,South,169,0.0,0.0,43,0.00,,,0.00,,2013-06-08 16:33:00,
2013-06-08 11:42:00,74.0,50.0,29.98,South,169,0.0,0.0,43,0.00,,,0.00,,2013-06-08 16:42:00,
2013-06-08 11:53:00,75.0,50.0,29.97,South,169,0.0,0.0,42,0.00,,,0.00,,2013-06-08 16:53:00,
2013-06-08 12:02:00,75.0,51.0,29.97,South,169,0.0,0.0,43,0.00,,,0.00,,2013-06-08 17:02:00,
2013-06-08 12:12:00,75.0,51.0,29.97,South,169,0.0,0.0,43,0.00,,,0.00,,2013-06-08 17:12:00,
2013-06-08 12:22:00,76.0,52.0,29.97,South,169,0.0,0.0,44,0.00,,,0.00,,2013-06-08 17:22:00,
2013-06-08 12:32:00,76.0,52.0,29.97,South,169,0.0,0.0,44,0.00,,,0.00,,2013-06-08 17:32:00,
2013-06-08 12:42:00,76.0,52.0,29.97,South,169,0.0,0.0,44,0.00,,,0.00,,2013-06-08 17:42:00,
2013-06-08 12:52:00,75.0,52.0,29.97,South,169,0.0,0.0,45,0.00,,,0.00,,2013-06-08 17:52:00,
2013-06-08 13:02:00,75.0,52.0,29.97,South,169,0.0,0.0,45,0.00,,,0.00,,2013-06-08 18:02:00,
2013-06-08 13:12:00,75.0,52.0,29.97,South,169,0.0,0.0,45,0.00,,,0.00,,2013-06-08 18:12:00,
2013-06-08 13:22:00,76.0,52.0,29.97,South,169,0.0,0.0,43,0.00,,,0.00,,2013-06-08 18:22:00,
2013-06-08 13:32:00,77.0,54.0,29.96,South,169,0.0,0.0,45,0.00,,,0.00,,2013-06-08 18:32:00,
2013-06-08 13:42:00,77.0,54.0,29.96,South,169,0.0,0.0,45,0.00,,,0.00,,2013-06-08 18:42:00,
2013-06-08 13:52:00,77.0,51.0,29.96,South,169,0.0,0.0,41,0.00,,,0.00,,2013-06-08 18:52:00,
2013-06-08 14:03:00,77.0,53.0,29.96,South,169,0.0,0.0,44,0.00,,,0.00,,2013-06-08 19:03:00,
2013-06-08 14:12:00,77.0,53.0,29.96,South,169,0.0,0.0,44,0.00,,,0.00,,2013-06-08 19:12:00,
2013-06-08 14:22:00,77.0,53.0,29.96,South,169,0.0,0.0,43,0.00,,,0.00,,2013-06-08 19:22:00,
2013-06-08 14:32:00,78.0,52.0,29.95,South,169,0.0,0.0,40,0.00,,,0.00,,2013-06-08 19:32:00,
2013-06-08 14:42:00,78.0,52.0,29.95,South,169,0.0,0.0,40,0.00,,,0.00,,2013-06-08 19:42:00,
2013-06-08 14:52:00,77.0,51.0,29.95,South,169,0.0,0.0,41,0.00,,,0.00,,2013-06-08 19:52:00,
2013-06-08 15:02:00,78.0,53.0,29.95,South,169,0.0,0.0,42,0.00,,,0.00,,2013-06-08 20:02:00,
2013-06-08 15:12:00,78.0,53.0,29.95,South,169,0.0,0.0,42,0.00,,,0.00,,2013-06-08 20:12:00,
2013-06-08 15:22:00,77.0,51.0,29.95,South,169,0.0,0.0,41,0.00,,,0.00,,2013-06-08 20:22:00,
2013-06-08 15:32:00,77.0,52.0,29.95,South,169,0.0,0.0,42,0.00,,,0.00,,2013-06-08 20:32:00,
2013-06-08 15:42:00,77.0,52.0,29.95,South,169,0.0,0.0,42,0.00,,,0.00,,2013-06-08 20:42:00,
2013-06-08 15:52:00,76.0,52.0,29.95,South,169,0.0,0.0,44,0.00,,,0.00,,2013-06-08 20:52:00,
2013-06-08 16:02:00,77.0,53.0,29.95,South,169,0.0,0.0,44,0.00,,,0.00,,2013-06-08 21:02:00,
2013-06-08 16:12:00,77.0,53.0,29.95,South,169,0.0,0.0,44,0.00,,,0.00,,2013-06-08 21:12:00,
2013-06-08 16:22:00,78.0,52.0,29.95,South,169,0.0,0.0,41,0.00,,,0.00,,2013-06-08 21:22:00,
2013-06-08 16:33:00,78.0,53.0,29.94,South,169,0.0,0.0,42,0.00,,,0.00,,2013-06-08 21:33:00,
2013-06-08 16:43:00,78.0,53.0,29.94,South,169,0.0,0.0,42,0.00,,,0.00,,2013-06-08 21:43:00,
2013-06-08 16:52:00,77.0,53.0,29.94,South,169,0.0,0.0,43,0.00,,,0.00,,2013-06-08 21:52:00,
2013-06-08 17:02:00,78.0,52.0,29.95,South,169,0.0,0.0,40,0.00,,,0.00,,2013-06-08 22:02:00,
2013-06-08 17:12:00,78.0,52.0,29.95,South,169,0.0,0.0,40,0.00,,,0.00,,2013-06-08 22:12:00,
2013-06-08 17:22:00,80.0,53.0,29.95,South,169,0.0,0.0,40,0.00,,,0.00,,2013-06-08 22:22:00,
2013-06-08 17:33:00,78.0,52.0,29.95,South,169,0.0,0.0,41,0.00,,,0.00,,2013-06-08 22:33:00,
2013-06-08 17:42:00,78.0,53.0,29.95,NNE,23,0.0,0.0,42,0.00,,,0.00,,2013-06-08 22:42:00,
2013-06-08 17:52:00,78.0,53.0,29.95,NNE,23,0.0,0.0,42,0.00,,,0.00,,2013-06-08 22:52:00,
2013-06-08 18:02:00,78.0,52.0,29.94,NNE,23,0.0,0.0,41,0.00,,,0.00,,2013-06-08 23:02:00,
2013-06-08 18:12:00,78.0,52.0,29.94,NNE,23,0.0,0.0,41,0.00,,,0.00,,2013-06-08 23:12:00,
2013-06-08 18:22:00,77.0,52.0,29.94,NNE,23,0.0,0.0,42,0.00,,,0.00,,2013-06-08 23:22:00,
2013-06-08 18:32:00,77.0,53.0,29.94,NNE,23,0.0,0.0,43,0.00,,,0.00,,2013-06-08 23:32:00,
2013-06-08 18:42:00,77.0,53.0,29.94,NNE,23,0.0,0.0,43,0.00,,,0.00,,2013-06-08 23:42:00,
2013-06-08 18:52:00,77.0,54.0,29.94,NNE,23,0.0,0.0,45,0.00,,,0.00,,2013-06-08 23:52:00,
2013-06-08 19:02:00,77.0,55.0,29.95,NNE,23,0.0,0.0,46,0.00,,,0.00,,2013-06-09 00:02:00,
2013-06-08 19:12:00,77.0,55.0,29.95,NNE,23,0.0,0.0,46,0.00,,,0.00,,2013-06-09 00:12:00,
2013-06-08 19:22:00,77.0,53.0,29.95,NNE,23,0.0,0.0,44,0.00,,,0.00,,2013-06-09 00:22:00,
2013-06-08 19:32:00,77.0,55.0,29.95,NNE,23,0.0,0.0,46,0.00,,,0.00,,2013-06-09 00:32:00,
2013-06-08 19:42:00,77.0,55.0,29.95,NNE,23,0.0,0.0,46,0.00,,,0.00,,2013-06-09 00:42:00,
2013-06-08 19:52:00,76.0,55.0,29.95,NNE,23,0.0,0.0,48,0.00,,,0.00,,2013-06-09 00:52:00,
2013-06-08 20:02:00,75.0,55.0,29.95,NNE,23,0.0,0.0,50,0.00,,,0.00,,2013-06-09 01:02:00,
2013-06-08 20:12:00,75.0,55.0,29.95,NNE,23,0.0,0.0,50,0.00,,,0.00,,2013-06-09 01:12:00,
2013-06-08 20:22:00,74.0,55.0,29.95,NNE,23,0.0,0.0,51,0.00,,,0.00,,2013-06-09 01:22:00,
2013-06-08 20:32:00,74.0,56.0,29.95,NNE,23,0.0,0.0,53,0.00,,,0.00,,2013-06-09 01:32:00,
2013-06-08 20:42:00,74.0,56.0,29.95,NNE,23,0.0,0.0,53,0.00,,,0.00,,2013-06-09 01:42:00,
2013-06-08 20:52:00,74.0,55.0,29.95,NNE,23,0.0,0.0,52,0.00,,,0.00,,2013-06-09 01:52:00,
2013-06-08 21:02:00,74.0,55.0,29.95,NNE,23,0.0,0.0,52,0.00,,,0.00,,2013-06-09 02:02:00,
2013-06-08 21:12:00,74.0,55.0,29.95,NNE,23,0.0,0.0,52,0.00,,,0.00,,2013-06-09 02:12:00,
2013-06-08 21:22:00,73.0,56.0,29.95,NNE,23,0.0,0.0,55,0.00,,,0.00,,2013-06-09 02:22:00,
2013-06-08 21:32:00,72.0,57.0,29.96,NNE,23,0.0,0.0,60,0.00,,,0.00,,2013-06-09 02:32:00,
2013-06-08 21:42:00,72.0,57.0,29.96,NNE,23,0.0,0.0,60,0.00,,,0.00,,2013-06-09 02:42:00,
2013-06-08 21:52:00,71.0,57.0,29.96,NNE,23,0.0,0.0,61,0.00,,,0.00,,2013-06-09 02:52:00,
2013-06-08 22:02:00,71.0,57.0,29.96,NNE,23,0.0,0.0,61,0.00,,,0.00,,2013-06-09 03:02:00,
2013-06-08 22:12:00,71.0,57.0,29.96,NNE,23,0.0,0.0,61,0.00,,,0.00,,2013-06-09 03:12:00,
2013-06-08 22:22:00,70.0,58.0,29.96,NNE,23,0.0,0.0,66,0.00,,,0.00,,2013-06-09 03:22:00,
2013-06-08 22:33:00,69.0,58.0,29.97,NNE,23,0.0,0.0,68,0.00,,,0.00,,2013-06-09 03:33:00,
2013-06-08 22:43:00,69.0,58.0,29.97,NNE,23,0.0,0.0,68,0.00,,,0.00,,2013-06-09 03:43:00,
2013-06-08 22:53:00,68.0,58.0,29.98,NNE,23,0.0,0.0,70,0.00,,,0.00,,2013-06-09 03:53:00,
2013-06-08 23:03:00,69.0,57.0,29.98,NNE,23,0.0,0.0,66,0.00,,,0.00,,2013-06-09 04:03:00,
2013-06-08 23:12:00,69.0,57.0,29.98,NNE,23,0.0,0.0,66,0.00,,,0.00,,2013-06-09 04:12:00,
2013-06-08 23:23:00,69.0,57.0,29.98,NNE,23,0.0,0.0,65,0.00,,,0.00,,2013-06-09 04:23:00,
2013-06-08 23:33:00,67.0,57.0,29.98,NNE,23,0.0,0.0,71,0.00,,,0.00,,2013-06-09 04:33:00,
2013-06-08 23:43:00,67.0,57.0,29.98,NNE,23,0.0,0.0,71,0.00,,,0.00,,2013-06-09 04:43:00,
2013-06-08 23:52:00,67.0,57.0,29.98,NNE,23,0.0,0.0,71,0.00,,,0.00,,2013-06-09 04:52:00,